Home   Weather   Chur   Past weeks

Flag for Switzerland Past Weather in Chur, Graubünden, Switzerland — Yesterday and Last 2 Weeks

Now
28 °F

Chilly.


Feels Like: 28 °F
Forecast: 35 / 51 °F
Wind: 1 mph from West

Location: Chur

Current Time: Dec 3, 2016 at 1:29:48 am

Latest Report: Dec 3, 2016 at 12:00 am


Visibility: N/A

Pressure: 30.23 "Hg (28.05 "Hg at 592m altitude)

Humidity: 86%

Dew Point: 24 °F

Location of ChurLocation

Past Weather in Chur — Graph

°F

Chur Temperature Yesterday

Maximum temperature yesterday: 42 °F (at 3:00 pm)
Minimum temperature yesterday: 27 °F (at 7:00 am)
Average temperature yesterday: 32 °F

High & Low Weather Summary for the Past Weeks

 TemperatureHumidityPressure
High64 °F (Nov 22, 2:00 pm)97% (Nov 19, 6:00 am)30.66 "Hg (Nov 19, 6:00 am)
Low27 °F (Dec 1, 7:00 am)37% (Nov 20, 2:00 pm)29.73 "Hg (Nov 21, 2:00 pm)
Average45 °F70%30.09 "Hg
* Reported Nov 18 12:00 am — Dec 3 12:00 am, Chur, Weather by CustomWeather, © 2016

Note: Actual official high and low records may vary slightly from our data, if they occured in-between our weather recording intervals... More about our weather records

Advertising

Chur Weather History for the Previous 24 Hours

Scroll right to see more
 ConditionsComfort  
Time TempWeatherWind HumidityBarometerVisibility
12:00 am
Sat, Dec 3
28 °FChilly.1 mph86%30.23 "HgN/A
11:00 pm
Fri, Dec 2
29 °FChilly.2 mph84%30.24 "HgN/A
10:00 pm30 °FFog.2 mph82%30.24 "Hg4 mi
9:00 pm30 °FChilly.2 mph83%30.24 "HgN/A
7:00 pm32 °FClear.No wind80%30.24 "Hg4 mi
6:00 pm33 °FChilly.No wind80%30.23 "HgN/A
5:00 pm35 °FChilly.No wind72%30.21 "HgN/A
4:00 pm40 °FSunny.3 mph59%30.17 "Hg16 mi
3:00 pm42 °FQuite cool.3 mph56%30.17 "HgN/A
2:00 pm42 °FQuite cool.5 mph54%30.17 "HgN/A
12:00 pm37 °FChilly.1 mph64%30.24 "HgN/A
11:00 am33 °FChilly.1 mph71%30.29 "HgN/A
10:00 am30 °FSunny.2 mph79%30.32 "Hg12 mi
9:00 am28 °FChilly.1 mph85%30.33 "HgN/A
8:00 am27 °FChilly.1 mph84%30.32 "HgN/A
7:00 am27 °FClear.1 mph84%30.31 "Hg16 mi
6:00 am28 °FChilly.1 mph81%30.30 "HgN/A
5:00 am29 °FChilly.3 mph79%30.29 "HgN/A
4:00 am28 °FHaze.1 mph82%30.30 "Hg4 mi
3:00 am29 °FChilly.1 mph80%30.31 "HgN/A
2:00 am30 °FChilly.2 mph75%30.31 "HgN/A
1:00 am33 °FHaze.3 mph67%30.31 "Hg4 mi
Weather by CustomWeather, © 2016

See weather overviewHow to use our weather pages